Skip Page Navigation
NASA JPL Caltech
NASA Logo - Jet Propulsion Laboratory + View the NASA Portal
+ Center for Near-Earth Object Studies
JPL Home Earth Solar System Stars & Galaxies Technology
JPL Solar System Dynamics
BODIES ORBITS EPHEMERIDES TOOLS PHYSICAL DATA DISCOVERY FAQ SITE MAP
JPL Small-Body Database Browser
Search: [ help ]  
136033 (2002 VM113)
Classification: Main-belt Asteroid          SPK-ID: 2136033
Ephemeris | Orbit Diagram | Orbital Elements | Mission Design | Physical Parameters | Discovery Circumstances ]

[ show orbit diagram ]
Orbital Elements at Epoch 2459000.5 (2020-May-31.0) TDB
Reference: JPL 14 (heliocentric ecliptic J2000)
 Element Value Uncertainty (1-sigma)   Units 
e .1290801490417516 5.5528e-08  
a 2.911534513090379 2.0073e-08 au
q 2.535713204200469 1.6332e-07 au
i 2.982483255741998 6.1476e-06 deg
node 70.382455886298 9.3524e-05 deg
peri 355.6792254694731 9.5565e-05 deg
M 185.6669378354278 1.8957e-05 deg
tp 2459879.236363508899
(2022-Oct-26.73636351)
9.8434e-05 TDB
period 1814.601814110113
4.97
1.8766e-05
5.138e-08
d
yr
n .1983906315978998 2.0517e-09 deg/d
Q 3.287355821980289 2.2664e-08 au
  Orbit Determination Parameters
   # obs. used (total)      477  
   data-arc span      9168 days (25.10 yr)  
   first obs. used      1994-03-05  
   last obs. used      2019-04-11  
   planetary ephem.      DE431  
   SB-pert. ephem.      SB431-N16  
   condition code      0  
   norm. resid. RMS      .5914  
   source      ORB  
   producer      Otto Matic  
   solution date      2019-Jul-13 13:07:28  

Additional Information
 Earth MOID = 1.54945 au 
 Jupiter MOID = 2.00132 au 
 T_jup = 3.269 
[ hide covariance matrix ]
Orbital Elements at Epoch 2456647.5 (2013-Dec-21.0) TDB
Reference: JPL 14 (heliocentric ecliptic J2000)
 Element Value Uncertainty (1-sigma)   Units 
e .1310472556756087 5.5586e-08  
q 2.528236490543147 1.6386e-07 au
tp 2456254.081169522753
(2012-Nov-22.58116952)
9.0923e-05 TDB
node 70.38807611450328 9.3495e-05 deg
peri 356.034536572475 9.5466e-05 deg
i 2.983920575250155 6.1504e-06 deg
  Orbit Determination Parameters
   # obs. used (total)      477  
   data-arc span      9168 days (25.10 yr)  
   first obs. used      1994-03-05  
   last obs. used      2019-04-11  
   planetary ephem.      DE431  
   SB-pert. ephem.      SB431-N16  
   condition code      0  
   norm. resid. RMS      .5914  
   source      ORB  
   producer      Otto Matic  
   solution date      2019-Jul-13 13:07:28  

Additional Information
 Jupiter MOID = 2.00132 au 
 T_jup = 3.269 
Orbit Covariance (6×6)
  e q tp node peri i
e 3.08983780295113E-15 -9.054598533732357E-15 -1.886176926645264E-13 8.730253293483904E-15 -9.547776263383414E-14 6.634002785315364E-16
q -9.054598533732357E-15 2.685093425476626E-14 4.409826353760979E-13 -2.671016144225541E-14 2.727427175497325E-13 -1.696710843796701E-15
tp -1.886176926645264E-13 4.409826353760979E-13 8.267004968302203E-9 -2.204583255683707E-11 1.77228301621883E-9 -1.179177034233957E-12
node 8.730253293483904E-15 -2.671016144225541E-14 -2.204583255683707E-11 8.741375107504302E-9 -8.734007393296091E-9 -1.78260642963606E-11
peri -9.547776263383414E-14 2.727427175497325E-13 1.77228301621883E-9 -8.734007393296091E-9 9.113803566014873E-9 1.755832322973219E-11
i 6.634002785315364E-16 -1.696710843796701E-15 -1.179177034233957E-12 -1.78260642963606E-11 1.755832322973219E-11 3.782721384223778E-11

Ephemeris | Orbit Diagram | Orbital Elements | Mission Design | Physical Parameters | Discovery Circumstances ]

Physical Parameter Table
Parameter Symbol Value Units Sigma Reference Notes
absolute magnitude H 15.6   n/a MPO475183  

136033 (2002 VM113)          Discovered 2002-Nov-13 by NEAT at Palomar
Reference: 20060907/Numbers.arcLast Updated: 2006-09-10
Ephemeris | Orbit Diagram | Orbital Elements | Mission Design | Physical Parameters | Discovery Circumstances ]
ABOUT SSD CREDITS/AWARDS PRIVACY/COPYRIGHT GLOSSARY LINKS
FirstGov 2020-Aug-09 16:50 UT
(server date/time)  
NASA Home Page
Site Manager:   Ryan S. Park
Webmaster  Alan B. Chamberlin